"Pseudo-MPEC" for C1G22X5

Created 2026 Sep 5 11:35:05 UT using Find_Orb

Click here for an explanation of pseudo-MPECs

 
 Astrometry: 
     C1G22X5*1C2026 09 05.34241622 59 55.316-08 46 33.82   ~9595 21.17GVNEOCPV00
     C1G22X5 1C2026 09 05.34801822 59 53.761-08 46 26.36   ~9595 21.20GVNEOCPV00
     C1G22X5 1C2026 09 05.35359622 59 52.220-08 46 18.95   ~9595 21.13GVNEOCPV00
     C1G22X5 1C2026 09 05.35917622 59 50.683-08 46 11.53   ~9595 21.42GVNEOCPV00
     C1G22X5 1C2026 09 05.40151622 59 38.962-08 45 14.90   ~95A5 21.40GVNEOCPV00
     C1G22X5 1C2026 09 05.40213622 59 38.796-08 45 14.22   ~95A5 21.05GVNEOCPV00
     C1G22X5 1C2026 09 05.40275622 59 38.634-08 45 13.28   ~95A5 21.18GVNEOCPV00
     C1G22X5 1C2026 09 05.40337722 59 38.447-08 45 12.46   ~95A5 21.31GVNEOCPV00
     C1G22X5 !C2026 09 05.42140022 59 33.804-08 44 50.03   ~95AZ 21.0 GWNEOCP673
     C1G22X5 !C2026 09 05.42799822 59 31.970-08 44 41.50   ~95AZ 21.1 GWNEOCP673
     C1G22X5 KC2026 09 05.43714922 59 29.043-08 44 27.52   ~95B5 21.1 GWNEOCPH01
     C1G22X5 KC2026 09 05.44171122 59 27.790-08 44 21.49   ~95B5 21.0 GWNEOCPH01
     C1G22X5 KC2026 09 05.44569122 59 26.717-08 44 15.94   ~95B5 21.1 GWNEOCPH01

Station data:
(673) Table Mountain Observatory, Wrightwood  (N34.381485 W117.682170)
   US/California.  Observers J. Chesley, J. Pittichova. Measurer W. M. Owen
   Jr. 0.61-m f/16 reflector + CCD.
(H01) Magdalena Ridge Observatory, Socorro  (N33.984833 W107.189333)  US/New
   Mexico.  Observers W. H. Ryan, E. V. Ryan. Measurer W. H. Ryan. 2.4-m
   f/8.9 reflector + CCD.
(V00) Kitt Peak-Bok  (N31.963125 W111.600190)  US/Arizona. Measurers T.
   Beuden, V. F. Carvajal, D. Fay, J. B. Fazekas, D. C. Fuls, A. R. Gibbs, A.
   D. Grauer, H. Gröller, J. K. Hogan, R. A. Kowalski, S. M. Larson, G. J.
   Leonard, D. Rankin, R. L. Seaman, F. C. Shelly, K. W. Wierzchoś. 2.25-m
   reflector + 4x4K mosaic CCD.

Orbital elements:  C1G22X5
   Perihelion 2026 Nov 18.765316 +/- 98.5 TT = 18:22:03.3 (JD 2461363.265316)
Epoch 2026 Sep  5.0 TT = JDT 2461288.5   Earth MOID: 0.0317   Ve: 0.0386
M 315.099555661 +/- 70              Ma: 0.0244                   AutoNEOCP
n   0.600551788 +/- 0.185           Peri.  103.770235 +/- 60
a   1.391347907 +/- 0.286           Node   344.301693 +/- 0.26
e   0.51874979 +/- 0.166            Incl.    9.962678 +/- 2.5
P   1.641/599.437d         H 24.66  G  0.15   U 11.6  SR
q 0.669586465 +/- 0.0844    Q 2.113109350 +/- 0.699       (J2000 ecliptic)
From 13 observations 2026 Sept. 5 (2.5 hr); mean residual 0".15
Residuals in arcseconds: 
260905 V00  .06-  .01+    260905 V00  .02+  .15-    260905 H01  .16-  .20+    
260905 V00  .10-  .04+    260905 V00  .15+  .05-    260905 H01  .28-  .03+    
260905 V00  .04-  .05+    260905 V00  .08-  .07-    260905 H01  .09-  .15+    
260905 V00  .08+  .05+    260905 673  .41+  .06+    
260905 V00  .06-  .00     260905 673  .20+  .32-    

Ephemerides (geocentric):
Date (UTC) HH   RA             Dec           delta  r     elong  mag " sig PA
---- --------  ------------   ------------  ------ ------ -----  --- --------
2026 09 05 12  22 59 14.746   -08 42 31.76  .17252 1.1807 177.9 21.4 11.9 124
2026 09 05 13  22 59 03.770   -08 41 35.80  .17217 1.1803 178.0 21.4 13.9 117
2026 09 05 14  22 58 52.750   -08 40 39.58  .17182 1.1800 178.0 21.4 16.2 111
2026 09 05 15  22 58 41.685   -08 39 43.11  .17147 1.1796 178.0 21.4 19.0 105
2026 09 05 16  22 58 30.576   -08 38 46.38  .17112 1.1792 178.1 21.4 22.3  99
2026 09 05 17  22 58 19.423   -08 37 49.39  .17078 1.1789 178.1 21.4 26.1  94
2026 09 05 18  22 58 08.224   -08 36 52.15  .17043 1.1785 178.1 21.4 30.7  90
2026 09 05 19  22 57 56.981   -08 35 54.65  .17008 1.1782 178.1 21.4 35.8  86
2026 09 05 20  22 57 45.692   -08 34 56.88  .16974 1.1778 178.1 21.4 41.7  84
2026 09 05 21  22 57 34.358   -08 33 58.85  .16939 1.1775 178.1 21.4 48.1  81
2026 09 05 22  22 57 22.978   -08 33 00.56  .16904 1.1771 178.1 21.4 55.2  80
2026 09 05 23  22 57 11.552   -08 32 02.00  .16870 1.1768 178.1 21.4 62.9  78
2026 09 06 00  22 57 00.080   -08 31 03.18  .16835 1.1764 178.1 21.4 71.3  77
2026 09 06 01  22 56 48.561   -08 30 04.09  .16801 1.1760 178.1 21.4 80.3  76
2026 09 06 02  22 56 36.996   -08 29 04.72  .16766 1.1757 178.1 21.3 89.8  76
2026 09 06 03  22 56 25.384   -08 28 05.08  .16732 1.1753 178.1 21.3  100  75
2026 09 06 04  22 56 13.725   -08 27 05.17  .16697 1.1750 178.1 21.3  111  74
2026 09 06 05  22 56 02.019   -08 26 04.99  .16663 1.1746 178.1 21.3  122  74
2026 09 06 06  22 55 50.265   -08 25 04.52  .16628 1.1743 178.0 21.3  135  74
2026 09 06 07  22 55 38.464   -08 24 03.78  .16594 1.1739 178.0 21.3  147  73
2026 09 06 08  22 55 26.615   -08 23 02.76  .16560 1.1735 178.0 21.3  161  73
2026 09 06 09  22 55 14.717   -08 22 01.46  .16525 1.1732 177.9 21.3  175  73
2026 09 06 10  22 55 02.771   -08 20 59.87  .16491 1.1728 177.9 21.3  189  73
2026 09 06 11  22 54 50.776   -08 19 58.00  .16457 1.1725 177.9 21.3  205  72
2026 09 06 12  22 54 38.733   -08 18 55.84  .16422 1.1721 177.8 21.3  221  72
2026 09 06 13  22 54 26.640   -08 17 53.39  .16388 1.1718 177.8 21.3  237  72
2026 09 06 14  22 54 14.498   -08 16 50.66  .16354 1.1714 177.7 21.3  254  72
2026 09 06 15  22 54 02.306   -08 15 47.63  .16320 1.1711 177.7 21.3  272  72
2026 09 06 16  22 53 50.065   -08 14 44.30  .16286 1.1707 177.6 21.3  291  72
2026 09 06 17  22 53 37.773   -08 13 40.69  .16252 1.1703 177.6 21.3  310  72
2026 09 06 18  22 53 25.431   -08 12 36.77  .16218 1.1700 177.5 21.3  330  71
2026 09 06 19  22 53 13.038   -08 11 32.56  .16184 1.1696 177.4 21.3  351  71
2026 09 06 20  22 53 00.595   -08 10 28.04  .16150 1.1693 177.4 21.3  372  71
2026 09 06 21  22 52 48.100   -08 09 23.23  .16116 1.1689 177.3 21.3  394  71
2026 09 06 22  22 52 35.555   -08 08 18.11  .16082 1.1686 177.3 21.3  417  71
2026 09 06 23  22 52 22.957   -08 07 12.68  .16048 1.1682 177.2 21.3  440  71
2026 09 07 00  22 52 10.308   -08 06 06.95  .16014 1.1678 177.1 21.3  464  71
2026 09 07 01  22 51 57.607   -08 05 00.91  .15980 1.1675 177.0 21.3  489  71
2026 09 07 02  22 51 44.853   -08 03 54.55  .15946 1.1671 177.0 21.3  515  71
2026 09 07 03  22 51 32.047   -08 02 47.89  .15912 1.1668 176.9 21.3  541  71
2026 09 07 04  22 51 19.187   -08 01 40.90  .15878 1.1664 176.8 21.3  568  71
2026 09 07 05  22 51 06.275   -08 00 33.61  .15845 1.1661 176.8 21.3  596  71
2026 09 07 06  22 50 53.309   -07 59 25.99  .15811 1.1657 176.7 21.3  624  71
2026 09 07 07  22 50 40.290   -07 58 18.05  .15777 1.1653 176.6 21.3  653  71
2026 09 07 08  22 50 27.217   -07 57 09.79  .15743 1.1650 176.5 21.3  683  71
2026 09 07 09  22 50 14.089   -07 56 01.21  .15710 1.1646 176.5 21.3  714  71
2026 09 07 10  22 50 00.907   -07 54 52.30  .15676 1.1643 176.4 21.3  745  71
2026 09 07 11  22 49 47.671   -07 53 43.06  .15642 1.1639 176.3 21.3  777  71